1495641600.81,21633,16.38,73440.3,0.69,-0.77,-1.13,0,*74
1495641602.0,21634,16.38,73432.3,0.69,-0.27,-0.61,0,*42
1495641603.17,21635,16.38,73418.5,0.69,-0.29,-0.73,0,*4E
1495641604.37,21636,16.38,73426.0,0.69,-0.53,-1.05,0,*70
1495641605.6,21637,16.38,73422.5,0.69,-0.89,-1.35,0,*75
1495641606.8,21638,16.38,73442.3,0.69,-0.65,-1.05,0,*7B
1495641607.99,21639,16.38,73454.3,0.69,-0.27,-0.61,0,*4F
1495641609.17,21640,16.38,73452.5,0.69,-0.49,-0.93,0,*44
1495641610.35,21641,16.38,73452.8,0.69,-0.77,-1.17,0,*75
1495641611.54,21642,16.38,73454.3,0.69,-0.41,-0.85,0,*49
1495641612.73,21643,16.38,73460.8,0.69,-0.49,-0.89,0,*4C
1495641613.92,21644,16.38,73462.5,0.69,-0.37,-0.85,0,*4E
1495641615.11,21645,16.38,73456.5,0.69,-0.37,-0.85,0,*4F
1495641616.28,21646,16.38,73452.5,0.73,-0.69,-1.25,0,*77
1495641617.48,21647,16.38,73448.3,0.73,-1.35,-1.75,0,*4B
1495641618.71,21648,16.38,73454.5,0.67,-2.15,-2.59,0,*4D
1495641619.93,21649,16.38,73458.0,0.67,-1.51,-1.83,0,*4B
1495641621.17,21650,16.38,73464.3,0.67,-1.39,-1.79,0,*48
1495641622.36,21651,16.44,73472.0,0.65,-0.53,-0.97,0,*47
1495641623.52,21652,16.38,73474.8,0.65,-0.19,-0.65,0,*47
1495641624.75,21653,16.38,73468.3,0.67,-0.57,-1.09,0,*75
1495641625.98,21654,16.38,73462.3,0.67,-1.55,-2.03,0,*48
1495641627.2,21655,16.38,73456.5,0.63,-1.09,-1.55,0,*44
1495641628.38,21656,16.38,73454.5,0.65,-0.81,-1.17,0,*76
1495641629.55,21657,16.38,73446.5,0.65,-0.81,-1.29,0,*7A
1495641630.78,21658,16.38,73448.5,0.65,-0.89,-1.43,0,*71
1495641631.95,21659,16.38,73448.0,0.65,-0.81,-1.17,0,*79
1495641633.15,21660,16.38,73444.3,0.63,-0.81,-1.21,0,*70
1495641634.34,21661,16.38,73442.8,0.65,-0.33,-0.89,0,*4D
1495641635.53,21662,16.38,73452.8,0.65,-0.45,-0.89,0,*4F
1495641636.72,21663,16.38,73452.8,0.65,-0.23,-0.69,0,*40
1495641637.89,21664,16.38,73450.5,0.65,-0.03,-0.41,0,*7F
1495641639.12,21665,16.38,73448.0,0.67,0.17,-0.23,0,*60
1495641640.28,21666,16.38,73454.0,0.69,0.09,-0.19,0,*5B
1495641641.45,21667,16.38,73448.0,0.69,-0.11,-0.57,0,*44
1495641642.65,21668,16.38,73442.5,0.67,-0.33,-0.77,0,*47
1495641643.82,21669,16.38,73442.3,0.69,-0.03,-0.41,0,*7E
1495641644.98,21670,16.38,73442.3,0.69,-0.07,-0.53,0,*71
1495641646.17,21671,16.38,73454.3,0.69,0.21,-0.19,0,*67
1495641647.36,21672,16.38,73458.3,0.69,-0.49,-0.93,0,*45
1495641648.54,21673,16.44,73460.5,0.73,-0.73,-1.21,0,*7E
1495641649.7,21674,16.38,73456.0,0.69,-0.37,-0.65,0,*43
1495641650.89,21675,16.38,73456.5,0.77,-0.69,-1.17,0,*72
1495641652.08,21676,16.38,73476.0,0.73,-0.85,-1.33,0,*71
1495641653.28,21677,16.38,73460.3,0.69,-0.73,-1.13,0,*70
1495641654.48,21678,16.38,73460.8,0.69,-0.85,-1.17,0,*72
1495641655.67,21679,16.38,73460.0,0.69,-0.61,-1.01,0,*7E
1495641656.92,21680,16.38,73464.5,0.67,-0.93,-1.39,0,*70
1495641658.14,21681,16.38,73468.5,0.67,-0.89,-1.33,0,*70
1495641659.31,21682,16.38,73468.0,0.69,-0.49,-0.77,0,*40
1495641660.51,21683,16.38,73472.0,0.69,-0.65,-1.05,0,*7B
1495641661.73,21684,16.38,73470.3,0.69,-0.89,-1.13,0,*79
1495641662.92,21685,16.38,73460.0,0.69,-0.27,-0.65,0,*4C
1495641664.08,21686,16.38,73444.8,0.69,-0.15,-0.61,0,*4A
1495641665.27,21687,16.38,73446.3,0.69,-0.49,-0.85,0,*48
1495641666.5,21688,16.38,73460.0,0.67,-0.65,-1.05,0,*7E
1495641667.69,21689,16.38,73472.8,0.67,-0.45,-0.81,0,*40
1495641668.86,21690,16.38,73470.5,0.69,-0.29,-0.65,0,*46
1495641670.03,21691,16.38,73474.8,0.69,-0.15,-0.41,0,*4E
1495641671.24,21692,16.38,73470.8,0.69,-1.13,-1.51,0,*4A
1495641672.46,21693,16.38,73470.5,0.67,-0.65,-1.09,0,*78
1495641673.66,21694,16.38,73468.5,0.69,-0.23,-0.41,0,*4E
1495641674.86,21695,16.38,73472.0,0.69,-0.85,-1.17,0,*71
1495641676.05,21696,16.38,73474.8,0.67,-0.29,-0.57,0,*4F
1495641677.2,21697,16.38,73476.8,0.69,0.01,-0.29,0,*5E
1495641678.39,21698,16.38,73472.3,0.69,-0.53,-0.93,0,*4A
1495641679.56,21699,16.38,73468.8,0.69,-0.07,-0.49,0,*7D
1495641680.79,21700,16.38,73466.0,0.69,-0.89,-1.39,0,*7C
1495641681.99,21701,16.38,73468.3,0.69,-1.01,-1.51,0,*42
1495641683.24,21702,16.38,73470.8,0.67,-0.89,-1.43,0,*7D
1495641684.44,21703,16.38,73474.0,0.69,-0.41,-0.89,0,*41
1495641685.61,21704,16.38,73468.5,0.69,-0.15,-0.53,0,*40
1495641686.77,21705,16.38,73470.8,0.69,-0.19,-0.61,0,*4C
1495641687.94,21706,16.38,73472.5,0.69,-0.07,-0.49,0,*7A
1495641689.11,21707,16.38,73464.8,0.69,0.09,-0.15,0,*51
1495641690.29,21708,16.38,73464.3,0.73,0.13,-0.15,0,*6E
1495641691.47,21709,16.38,73472.3,0.73,0.41,-0.03,0,*5F
1495641692.64,21710,16.38,73468.5,0.77,0.09,-0.41,0,*59
1495641693.84,21711,16.38,73464.8,0.77,-0.65,-0.93,0,*40
1495641695.03,21712,16.38,73466.5,0.73,-0.23,-0.65,0,*4C
1495641696.23,21713,16.38,73468.0,0.77,0.21,-0.11,0,*65
1495641697.43,21714,16.38,73478.0,0.77,-0.23,-0.65,0,*4E
1495641698.61,21715,16.38,73472.0,0.77,-0.19,-0.57,0,*47
1495641699.79,21716,16.38,73468.5,0.77,-0.07,-0.41,0,*7C
1495641700.98,21717,16.38,73470.8,0.77,0.05,-0.23,0,*56
1495641702.22,21718,16.38,73470.8,0.77,-0.97,-1.39,0,*75
1495641703.4,21719,16.38,73460.3,0.77,-0.45,-0.77,0,*40
1495641704.58,21720,16.38,73468.0,0.77,-0.07,-0.33,0,*7C
1495641705.75,21721,16.38,73460.5,0.77,0.01,-0.33,0,*56
1495641706.97,21722,16.38,73462.0,0.79,-0.23,-0.65,0,*45
1495641708.2,21723,16.38,73460.3,0.79,-0.57,-0.97,0,*4A
1495641709.42,21724,16.38,73462.3,0.79,-1.33,-1.79,0,*4F
1495641710.64,21725,16.38,73458.8,0.79,-1.29,-1.55,0,*4B
1495641711.82,21726,16.38,73460.8,0.77,-0.45,-0.77,0,*4C
1495641712.99,21727,16.38,73462.0,0.77,0.01,-0.41,0,*55
1495641714.17,21728,16.38,73468.8,0.77,0.09,-0.11,0,*57
1495641715.33,21729,16.38,73474.8,0.77,0.01,-0.29,0,*55
1495641716.51,21730,16.38,73474.0,0.77,-0.19,-0.53,0,*44
1495641717.73,21731,16.38,73466.8,0.81,0.13,-0.27,0,*68
1495641718.94,21732,16.38,73448.3,0.79,-0.77,-1.17,0,*71
1495641720.16,21733,16.38,73454.8,0.79,-0.53,-0.85,0,*4C
1495641721.36,21734,16.38,73460.8,0.81,-0.61,-0.89,0,*41
1495641722.58,21735,16.38,73466.8,0.79,-0.81,-1.17,0,*7F
1495641723.81,21736,16.38,73456.5,0.79,-1.09,-1.51,0,*4F
1495641725.04,21737,16.38,73458.8,0.79,-0.23,-0.65,0,*41
1495641726.23,21738,16.38,73452.5,0.79,0.09,-0.29,0,*53
1495641727.45,21739,16.38,73450.3,0.79,-0.81,-1.29,0,*7E
1495641728.68,21740,16.38,73462.3,0.79,-0.57,-0.97,0,*4F
1495641729.91,21741,16.38,73474.8,0.79,-0.23,-0.57,0,*41
1495641731.11,21742,16.38,73484.8,0.79,-0.11,-0.57,0,*43
1495641732.34,21743,16.38,73472.3,0.79,-0.93,-1.33,0,*7B
1495641733.56,21744,16.38,73460.5,0.77,-1.95,-2.31,0,*44
1495641734.74,21745,16.38,73452.0,0.73,-3.27,-3.75,0,*4B
1495641735.94,21746,16.38,73446.5,0.67,-2.39,-2.83,0,*4B
1495641737.14,21747,16.38,73446.5,0.65,-1.67,-2.07,0,*4C
1495641738.32,21748,16.38,73434.8,0.65,-1.17,-1.51,0,*44
1495641739.5,21749,16.38,73422.8,0.65,-0.81,-1.17,0,*79
1495641740.74,21750,16.38,73420.3,0.63,-0.85,-1.13,0,*77
1495641741.93,21751,16.38,73454.5,0.63,-0.33,-0.69,0,*47
1495641743.12,21752,16.38,73460.5,0.65,-0.23,-0.57,0,*4E
1495641744.31,21753,16.38,73442.8,0.65,-0.65,-0.93,0,*45
1495641745.5,21754,16.38,73466.8,0.65,-0.77,-1.09,0,*73
1495641746.67,21755,16.38,73460.0,0.65,-0.53,-0.77,0,*4C
1495641747.84,21756,16.38,73464.8,0.65,-0.19,-0.57,0,*43
1495641749.05,21757,16.38,73466.0,0.67,-0.11,-0.41,0,*4F
1495641750.25,21758,16.38,73468.5,0.67,-0.11,-0.45,0,*44
1495641751.44,21759,16.38,73468.0,0.67,-0.33,-0.77,0,*44
1495641752.62,21760,16.38,73448.0,0.69,-0.37,-0.73,0,*40
1495641753.85,21761,16.38,73454.5,0.69,-1.05,-1.47,0,*47
1495641755.09,21762,16.38,73450.0,0.67,-1.39,-1.63,0,*43
1495641756.3,21763,16.38,73446.3,0.67,-0.57,-0.93,0,*45
1495641757.5,21764,16.38,73452.8,0.67,-0.33,-0.77,0,*4A
1495641758.7,21765,16.38,73470.0,0.67,-0.19,-0.45,0,*42
1495641759.9,21766,16.38,73470.0,0.67,-0.11,-0.53,0,*4E
1495641761.12,21767,16.38,73452.5,0.67,-0.93,-1.29,0,*79
1495641762.31,21768,16.38,73430.0,0.67,-0.33,-0.77,0,*46
1495641763.48,21769,16.38,73412.5,0.69,-0.07,-0.41,0,*7B
1495641764.71,21770,16.38,73404.5,0.69,-0.93,-1.35,0,*7C
1495641765.97,21771,16.38,73450.5,0.67,-1.05,-1.39,0,*41
1495641767.19,21772,16.38,73440.0,0.67,-0.65,-0.97,0,*40
1495641768.38,21773,16.38,73432.5,0.67,-0.53,-0.81,0,*43
1495641769.6,21774,16.38,73434.0,0.67,-0.65,-0.93,0,*42
1495641770.86,21775,16.38,73450.3,0.67,-0.97,-1.39,0,*7F
1495641772.05,21776,16.38,73452.0,0.67,-0.45,-0.77,0,*48
1495641773.25,21777,16.38,73450.3,0.67,-0.07,-0.41,0,*7A
1495641774.41,21778,16.38,73454.8,0.69,-0.03,-0.29,0,*71
1495641775.6,21779,16.38,73458.8,0.69,0.13,-0.19,0,*6F
1495641776.78,21780,16.38,73466.8,0.69,0.09,-0.27,0,*5F
1495641777.96,21781,16.38,73464.8,0.69,0.25,-0.07,0,*52
1495641779.12,21782,16.38,73464.3,0.69,0.01,-0.37,0,*54
1495641780.27,21783,16.38,73478.8,0.69,0.43,0.01,0,*7B
1495641781.44,21784,16.38,73470.0,0.73,0.41,0.01,0,*75
1495641782.63,21785,16.38,73470.5,0.77,0.05,-0.23,0,*5D
1495641783.83,21786,16.38,73472.5,0.77,-0.23,-0.65,0,*45
1495641785.06,21787,16.38,73468.0,0.73,-1.01,-1.43,0,*44
1495641786.26,21788,16.38,73454.3,0.73,-2.47,-2.83,0,*45
1495641787.47,21789,16.38,73466.8,0.69,-1.63,-2.03,0,*42
1495641788.69,21790,16.38,73460.5,0.67,-2.95,-3.55,0,*4C
1495641789.87,21791,16.38,73448.3,0.65,-2.15,-2.43,0,*41
1495641791.08,21792,16.38,73444.0,0.63,-1.33,-1.71,0,*41
1495641792.25,21793,16.38,73448.5,0.65,-0.45,-0.77,0,*41
1495641793.44,21794,16.38,73442.8,0.63,-0.07,-0.37,0,*72
1495641794.63,21795,16.38,73442.5,0.63,-0.37,-0.73,0,*40
1495641795.83,21796,16.38,73448.0,0.65,-0.23,-0.49,0,*49
1495641797.02,21797,16.38,73428.0,0.65,-0.53,-0.89,0,*43
1495641798.19,21798,16.38,73418.5,0.65,-0.77,-1.17,0,*7C
1495641799.36,21799,16.38,73408.3,0.65,-0.81,-1.17,0,*74
1495641800.55,21800,16.38,73400.0,0.65,-0.77,-0.97,0,*4B
1495641801.74,21801,16.38,73434.3,0.63,-0.49,-0.81,0,*46
1495641802.94,21802,16.38,73440.0,0.65,-0.85,-1.17,0,*7D
1495641804.13,21803,16.38,73438.5,0.65,-0.23,-0.53,0,*41
1495641805.29,21804,16.38,73452.8,0.65,0.09,-0.19,0,*5D
1495641806.52,21805,16.38,73452.3,0.67,-1.09,-1.55,0,*4B
1495641807.71,21806,16.38,73446.5,0.65,-1.55,-1.95,0,*4F
1495641808.94,21807,16.38,73442.3,0.65,-1.05,-1.43,0,*40
1495641810.11,21808,16.38,73436.5,0.65,-0.11,-0.65,0,*4E
1495641811.32,21809,16.38,73438.0,0.63,-0.37,-0.85,0,*43
1495641812.54,21810,16.38,73440.3,0.63,-0.27,-0.73,0,*43
1495641813.75,21811,16.38,73458.3,0.63,-0.73,-1.21,0,*75
1495641814.96,21812,16.38,73452.8,0.63,-0.61,-0.93,0,*4D
1495641816.14,21813,16.31,73448.5,0.65,-0.53,-0.93,0,*4B
1495641817.33,21814,16.38,73442.0,0.65,-0.57,-0.93,0,*48
1495641818.52,21815,16.31,73462.8,0.65,-0.65,-0.97,0,*4C
1495641819.69,21816,16.38,73468.0,0.65,-0.45,-0.81,0,*4A
1495641820.88,21817,16.38,73466.5,0.63,-0.45,-0.81,0,*4D
1495641822.07,21818,16.38,73472.0,0.65,-0.45,-0.93,0,*47
1495641823.24,21819,16.38,73472.8,0.65,-0.11,-0.57,0,*4F
1495641824.42,21820,16.38,73472.8,0.65,0.09,-0.23,0,*52
1495641825.6,21821,16.38,73476.3,0.65,0.17,-0.19,0,*65
1495641826.83,21822,16.38,73474.3,0.67,0.17,-0.23,0,*6D
1495641828.01,21823,16.38,73472.8,0.69,-1.17,-1.55,0,*4E
1495641829.21,21824,16.38,73472.5,0.67,-2.27,-2.79,0,*4A
1495641830.42,21825,16.38,73468.3,0.67,-2.43,-2.95,0,*4B
1495641831.65,21826,16.38,73460.3,0.63,-1.95,-2.31,0,*4A
1495641832.88,21827,16.38,73448.8,0.59,-1.91,-2.35,0,*42
1495641834.08,21828,16.38,73446.0,0.61,-1.43,-1.59,0,*40
1495641835.25,21829,16.38,73446.5,0.61,-0.45,-0.81,0,*42
1495641836.43,21830,16.38,73442.0,0.61,-0.61,-0.93,0,*4F
1495641837.6,21831,16.38,73416.3,0.61,-0.37,-0.81,0,*4E
1495641838.8,21832,16.38,73404.8,0.61,-0.27,-0.69,0,*4A
1495641839.97,21833,16.38,73392.5,0.61,-0.37,-0.73,0,*41
1495641841.17,21834,16.38,73408.0,0.63,-0.15,-0.37,0,*44
1495641842.38,21835,16.38,73438.8,0.63,-0.27,-0.61,0,*47
1495641843.6,21836,16.38,73426.0,0.63,-0.81,-1.01,0,*7F
1495641844.81,21837,16.38,73422.0,0.63,-1.21,-1.55,0,*44
1495641846.03,21838,16.38,73410.8,0.63,-0.73,-0.97,0,*42
1495641847.21,21839,16.38,73416.3,0.61,-1.25,-1.59,0,*40
1495641848.44,21840,16.38,73426.5,0.59,-1.87,-2.23,0,*43
1495641849.67,21841,16.38,73440.0,0.59,-1.39,-1.63,0,*40
1495641850.9,21842,16.38,73448.3,0.59,-0.97,-1.21,0,*70
1495641852.11,21843,16.38,73450.5,0.59,-1.17,-1.51,0,*4F
1495641853.37,21844,16.38,73460.5,0.59,-1.05,-1.39,0,*45
1495641854.59,21845,16.38,73466.5,0.59,-0.77,-1.13,0,*78
1495641855.78,21846,16.38,73468.5,0.59,-0.41,-0.61,0,*4A
1495641856.99,21847,16.38,73464.5,0.59,-0.61,-0.89,0,*4F
1495641858.21,21848,16.38,73462.8,0.59,-0.27,-0.49,0,*4E
1495641859.42,21849,16.38,73460.0,0.59,0.13,-0.11,0,*68
1495641860.6,21850,16.31,73454.5,0.61,0.01,-0.23,0,*59
1495641861.79,21851,16.38,73454.5,0.59,-0.19,-0.53,0,*40
1495641862.98,21852,16.38,73448.8,0.61,-0.61,-0.93,0,*4B
1495641864.15,21853,16.31,73450.5,0.61,-0.45,-0.69,0,*49
1495641865.34,21854,16.38,73460.8,0.61,-0.27,-0.57,0,*47
1495641866.56,21855,16.38,73460.3,0.63,-0.27,-0.61,0,*41
1495641867.75,21856,16.38,73456.8,0.63,-0.15,-0.45,0,*45
1495641868.93,21857,16.38,73458.0,0.63,0.01,-0.33,0,*5D
1495641870.15,21858,16.38,73454.8,0.63,-0.27,-0.57,0,*49
1495641871.34,21859,16.38,73450.3,0.63,-0.37,-0.61,0,*4C
1495641872.53,21860,16.31,73442.0,0.63,-0.37,-0.61,0,*46
1495641873.72,21861,16.38,73440.5,0.63,-0.15,-0.33,0,*40
1495641874.91,21862,16.31,73446.5,0.63,-0.33,-0.57,0,*45
1495641876.1,21863,16.38,73456.3,0.63,-0.61,-0.81,0,*48
1495641877.29,21864,16.31,73454.5,0.63,0.05,-0.19,0,*51
1495641878.45,21865,16.31,73448.8,0.65,-0.33,-0.57,0,*44
1495641879.62,21866,16.38,73458.5,0.65,0.09,-0.11,0,*51
1495641880.8,21867,16.31,73458.8,0.65,0.17,-0.11,0,*6F
1495641881.96,21868,16.38,73450.0,0.65,-0.07,-0.45,0,*7D
1495641883.13,21869,16.38,73454.5,0.65,-0.07,-0.45,0,*7C
1495641884.29,21870,16.31,73440.0,0.65,-0.45,-0.77,0,*43
1495641885.49,21871,16.31,73434.0,0.63,-0.45,-0.73,0,*40
1495641886.66,21872,16.38,73438.8,0.65,-0.53,-0.81,0,*4F
1495641887.85,21873,16.38,73460.8,0.65,-0.65,-0.97,0,*4C
1495641889.02,21874,16.38,73466.0,0.65,-0.69,-1.17,0,*7E
1495641890.21,21875,16.38,73466.3,0.65,-0.93,-1.17,0,*7A
1495641891.43,21876,16.38,73452.5,0.63,-0.27,-0.57,0,*45
1495641892.59,21877,16.38,73448.5,0.65,-0.33,-0.77,0,*45
1495641893.79,21878,16.31,73444.8,0.63,-0.49,-0.81,0,*48
1495641894.95,21879,16.31,73442.0,0.65,-0.45,-0.81,0,*43
1495641896.16,21880,16.38,73448.5,0.63,-0.49,-0.85,0,*4B
1495641897.36,21881,16.38,73452.5,0.65,-0.65,-1.05,0,*7B
1495641898.53,21882,16.38,73456.5,0.65,-0.45,-0.73,0,*4A
1495641899.7,21883,16.31,73452.8,0.65,-0.11,-0.45,0,*4F
1495641900.88,21884,16.31,73456.0,0.65,0.09,-0.23,0,*5C
1495641902.1,21885,16.31,73454.3,0.63,-0.81,-1.13,0,*74
1495641903.27,21886,16.31,73452.8,0.65,-0.45,-0.81,0,*43
1495641904.47,21887,16.31,73448.8,0.63,-0.11,-0.33,0,*4C
1495641905.66,21888,16.38,73454.0,0.65,0.21,-0.11,0,*6B
1495641906.82,21889,16.38,73450.0,0.65,0.09,-0.19,0,*58
1495641908.0,21890,16.31,73442.8,0.65,0.29,-0.19,0,*62
1495641909.21,21891,16.31,73438.5,0.63,0.01,-0.23,0,*56
1495641910.37,21892,16.31,73440.0,0.65,-0.11,-0.53,0,*48
1495641911.59,21893,16.38,73440.0,0.67,0.21,-0.11,0,*63
1495641912.77,21894,16.38,73440.5,0.65,0.21,-0.07,0,*51
1495641913.93,21895,16.31,73440.3,0.65,-0.07,-0.29,0,*75
1495641915.11,21896,16.38,73446.8,0.65,0.09,-0.23,0,*5F
1495641916.28,21897,16.31,73458.3,0.65,-0.03,-0.41,0,*7D
1495641917.5,21898,16.31,73460.3,0.67,0.21,-0.11,0,*68
1495641918.69,21899,16.31,73444.5,0.67,-0.07,-0.45,0,*71
1495641919.89,21900,16.31,73440.5,0.67,-0.41,-0.77,0,*43
1495641921.08,21901,16.31,73432.5,0.67,-0.33,-0.65,0,*44
1495641922.3,21902,16.31,73436.8,0.67,-0.57,-0.93,0,*4C
1495641923.54,21903,16.31,73452.3,0.67,-1.05,-1.29,0,*4B
1495641924.76,21904,16.31,73462.0,0.67,-0.77,-1.05,0,*76
1495641925.98,21905,16.31,73464.8,0.67,-0.57,-0.97,0,*4F
1495641927.19,21906,16.38,73478.5,0.63,-0.57,-0.97,0,*48
1495641928.42,21907,16.38,73464.0,0.63,-0.85,-1.25,0,*7E
1495641929.63,21908,16.31,73444.3,0.65,-1.39,-1.71,0,*40
1495641930.85,21909,16.31,73466.0,0.63,-0.85,-1.25,0,*70
1495641932.04,21910,16.31,73462.8,0.63,-0.33,-0.73,0,*47
1495641933.25,21911,16.31,73460.8,0.63,-0.61,-1.09,0,*7D
1495641934.47,21912,16.31,73460.8,0.63,-0.57,-0.93,0,*49
1495641935.7,21913,16.31,73458.0,0.61,-1.01,-1.47,0,*40
1495641936.88,21914,16.31,73464.5,0.61,-0.81,-1.25,0,*7A
1495641938.04,21915,16.31,73452.5,0.61,-0.33,-0.81,0,*4D
1495641939.24,21916,16.31,73454.0,0.61,-0.81,-1.13,0,*7D
1495641940.47,21917,16.31,73466.3,0.61,-0.97,-1.35,0,*7F
1495641941.66,21918,16.31,73482.5,0.61,-0.57,-0.93,0,*41
1495641942.85,21919,16.31,73482.3,0.61,-0.49,-1.01,0,*75
1495641944.08,21920,16.31,73468.0,0.59,-1.13,-1.51,0,*4F
1495641945.26,21921,16.31,73462.5,0.61,-0.37,-0.73,0,*43
1495641946.47,21922,16.31,73444.3,0.59,-0.27,-0.65,0,*4D
1495641947.69,21923,16.38,73430.5,0.59,-0.77,-1.13,0,*79
1495641948.92,21924,16.31,73428.5,0.61,-1.05,-1.39,0,*49
1495641950.14,21925,16.31,73434.5,0.59,-1.29,-1.71,0,*41
1495641951.33,21926,16.38,73446.8,0.61,-0.93,-1.33,0,*7F
1495641952.51,21927,16.31,73454.0,0.57,-1.21,-1.63,0,*46
1495641953.7,21928,16.31,73458.8,0.57,-0.77,-1.09,0,*77
1495641954.87,21929,16.31,73460.8,0.57,-0.33,-0.81,0,*47
1495641956.06,21930,16.31,73464.3,0.59,-0.29,-0.77,0,*43
1495641957.27,21931,16.31,73464.3,0.59,0.09,-0.27,0,*58
1495641958.46,21932,16.38,73466.8,0.61,0.37,-0.11,0,*68
1495641959.66,21933,16.31,73464.0,0.61,0.25,-0.23,0,*6B
1495641960.83,21934,16.38,73466.8,0.61,0.05,-0.45,0,*5E
1495641961.99,21935,16.31,73464.0,0.61,0.05,-0.37,0,*5A
1495641963.2,21936,16.31,73462.8,0.63,0.51,0.05,0,*76
1495641964.4,21937,16.31,73464.0,0.63,0.51,0.05,0,*77
1495641965.62,21938,16.31,73468.3,0.67,0.21,-0.19,0,*6B
1495641966.83,21939,16.31,73466.0,0.63,0.13,-0.37,0,*63
1495641968.03,21940,16.31,73460.0,0.65,-0.65,-1.05,0,*77
1495641969.21,21941,16.31,73448.8,0.65,-0.65,-0.97,0,*4C
1495641970.4,21942,16.31,73438.3,0.65,-0.23,-0.65,0,*40
1495641971.58,21943,16.31,73420.3,0.63,0.01,-0.33,0,*59
1495641972.75,21944,16.31,73426.0,0.65,-0.41,-0.77,0,*41
1495641973.91,21945,16.31,73436.3,0.65,0.09,-0.29,0,*5A
1495641975.09,21946,16.31,73430.3,0.67,0.05,-0.29,0,*57
1495641976.26,21947,16.31,73426.3,0.65,-0.11,-0.45,0,*46
1495641977.42,21948,16.31,73418.5,0.65,0.09,-0.19,0,*54
1495641978.57,21949,16.31,73426.8,0.65,0.43,0.05,0,*7B
1495641979.78,21950,16.31,73438.0,0.67,0.41,-0.03,0,*58
1495641980.94,21951,16.31,73442.0,0.69,-0.03,-0.29,0,*74
1495641982.16,21952,16.31,73440.8,0.67,0.21,-0.11,0,*6F
1495641983.32,21953,16.31,73446.3,0.69,0.01,-0.41,0,*57
1495641984.51,21954,16.31,73450.5,0.69,0.13,-0.19,0,*6E
1495641985.69,21955,16.31,73454.0,0.69,0.37,-0.03,0,*52
1495641986.87,21956,16.31,73454.5,0.69,0.55,0.09,0,*72
1495641988.04,21957,16.31,73458.3,0.69,-0.03,-0.41,0,*7C
1495641989.2,21958,16.31,73444.8,0.69,0.01,-0.37,0,*5D
1495641990.39,21959,16.31,73424.5,0.69,-0.41,-0.85,0,*4C
1495641991.63,21960,16.31,73406.0,0.67,-1.63,-2.07,0,*41
1495641992.83,21961,16.31,73418.0,0.67,-2.43,-3.03,0,*44
1495641994.0,21962,16.31,73442.0,0.65,-2.39,-2.79,0,*44
1495641995.22,21963,16.31,73444.0,0.63,-0.93,-1.21,0,*7F
1495641996.47,21964,16.31,73444.0,0.63,-0.97,-1.47,0,*7C
1495641997.67,21965,16.31,73454.3,0.61,-0.97,-1.33,0,*7C
1495641998.87,21966,16.31,73450.8,0.61,-0.27,-0.69,0,*4A
1495642000.04,21967,16.31,73444.3,0.61,-0.11,-0.45,0,*40
1495642001.23,21968,16.31,73448.3,0.61,0.17,-0.15,0,*61
1495642002.44,21969,16.31,73450.3,0.63,0.25,-0.11,0,*67
1495642003.62,21970,16.31,73456.5,0.65,0.41,-0.03,0,*58
1495642004.81,21971,16.31,73450.3,0.65,0.21,-0.11,0,*6C
1495642006.0,21972,16.31,73442.0,0.65,-0.77,-1.09,0,*79
1495642007.2,21973,16.31,73434.8,0.63,-0.57,-0.81,0,*4D
1495642008.41,21974,16.31,73442.0,0.63,-0.57,-0.97,0,*4D
1495642009.64,21975,16.31,73432.3,0.63,-1.59,-1.99,0,*4C
1495642010.87,21976,16.31,73440.0,0.63,-1.43,-1.75,0,*46
1495642012.06,21977,16.31,73432.8,0.61,-0.93,-1.25,0,*7C
1495642013.31,21978,16.31,73432.8,0.59,-0.85,-1.13,0,*7A
1495642014.52,21979,16.31,73446.0,0.59,-0.49,-0.85,0,*45
1495642015.72,21980,16.31,73456.3,0.59,-0.11,-0.49,0,*4E
1495642016.91,21981,16.31,73450.3,0.59,-0.49,-0.77,0,*4F
1495642018.08,21982,16.31,73466.0,0.61,-0.37,-0.73,0,*4A
1495642019.28,21983,16.31,73468.0,0.61,-0.57,-0.93,0,*43
1495642020.45,21984,16.31,73468.0,0.61,-0.37,-0.77,0,*48
1495642021.64,21985,16.31,73464.5,0.59,-0.49,-0.77,0,*4B
1495642022.81,21986,16.31,73462.0,0.61,-0.11,-0.53,0,*48
1495642024.01,21987,16.31,73464.3,0.59,-0.15,-0.41,0,*45
1495642025.24,21988,16.31,73454.0,0.61,-1.09,-1.43,0,*4E
1495642026.44,21989,16.31,73456.8,0.61,-0.69,-1.01,0,*7E
1495642027.61,21990,16.31,73462.0,0.61,-0.37,-0.81,0,*44
1495642028.8,21991,16.31,73462.8,0.61,-0.23,-0.69,0,*46
1495642029.97,21992,16.31,73458.3,0.61,-0.07,-0.45,0,*7D
1495642031.16,21993,16.31,73468.3,0.59,-0.15,-0.37,0,*41
1495642032.34,21994,16.31,73470.0,0.61,-0.37,-0.73,0,*4D
1495642033.51,21995,16.31,73462.3,0.61,-0.45,-0.81,0,*44
1495642034.68,21996,16.31,73454.0,0.61,-0.37,-0.81,0,*42
1495642035.87,21997,16.31,73456.0,0.61,-0.85,-1.25,0,*75
1495642037.09,21998,16.31,73458.0,0.59,-0.27,-0.65,0,*4C
1495642038.27,21999,16.31,73466.8,0.61,0.17,-0.15,0,*6F
1495642039.48,22000,16.31,73464.5,0.59,0.13,-0.37,0,*6A
1495642040.67,22001,16.31,73464.8,0.61,0.13,-0.15,0,*60
1495642041.84,22002,16.31,73462.0,0.61,-0.11,-0.45,0,*49
1495642043.04,22003,16.31,73464.0,0.63,-0.11,-0.45,0,*4A
1495642044.25,22004,16.31,73458.5,0.63,0.13,-0.15,0,*67
1495642045.43,22005,16.31,73428.8,0.65,0.17,-0.19,0,*68
1495642046.61,22006,16.31,73416.0,0.65,-0.77,-1.21,0,*7A
1495642047.82,22007,16.31,73410.3,0.65,-1.05,-1.51,0,*48
1495642049.07,22008,16.31,73462.0,0.63,-1.47,-1.83,0,*48
1495642050.3,22009,16.31,73474.0,0.59,-0.73,-1.05,0,*78
1495642051.52,22010,16.31,73474.8,0.61,-0.89,-1.01,0,*7A
1495642052.77,22011,16.31,73458.3,0.59,-0.89,-1.35,0,*77
1495642054.0,22012,16.31,73456.5,0.59,-1.01,-1.25,0,*44
1495642055.24,22013,16.31,73460.0,0.59,-0.85,-1.13,0,*7D
1495642056.46,22014,16.31,73458.5,0.59,-0.65,-1.01,0,*77
1495642057.64,22015,16.31,73464.3,0.57,-0.81,-1.21,0,*70
1495642058.85,22016,16.31,73462.0,0.55,-0.53,-0.93,0,*46
1495642060.02,22017,16.31,73460.5,0.57,-0.33,-0.69,0,*46
1495642061.19,22018,16.31,73460.0,0.57,-0.41,-0.77,0,*43
1495642062.35,22019,16.31,73456.3,0.57,-0.29,-0.69,0,*43
1495642063.54,22020,16.31,73460.3,0.57,-0.45,-0.89,0,*4D
1495642064.72,22021,16.31,73460.0,0.59,-0.29,-0.65,0,*4A
1495642065.92,22022,16.31,73452.0,0.59,-0.41,-0.77,0,*44
1495642067.11,22023,16.31,73450.5,0.59,-0.29,-0.65,0,*48
1495642068.31,22024,16.31,73438.5,0.59,-0.19,-0.49,0,*42
1495642069.52,22025,16.31,73440.5,0.59,-0.27,-0.61,0,*44
1495642070.71,22026,16.31,73450.0,0.59,-0.29,-0.61,0,*49
1495642071.89,22027,16.31,73452.8,0.61,0.29,-0.07,0,*5E
1495642073.12,22028,16.31,73446.0,0.59,0.47,0.13,0,*4A
1495642074.33,22029,16.31,73446.5,0.59,0.25,-0.11,0,*60
1495642075.5,22030,16.31,73458.0,0.61,-0.15,-0.49,0,*40
1495642076.67,22031,16.31,73468.3,0.61,-0.33,-0.61,0,*4F
1495642077.84,22032,16.31,73478.0,0.61,-0.11,-0.49,0,*46
1495642079.04,22033,16.31,73456.8,0.59,-1.75,-2.15,0,*44
1495642080.24,22034,16.31,73442.8,0.61,-0.73,-1.01,0,*79
1495642081.48,22035,16.31,73444.0,0.59,-1.35,-1.71,0,*47
1495642082.64,22036,16.31,73458.3,0.57,-0.29,-0.65,0,*42
1495642083.83,22037,16.31,73458.5,0.57,-0.23,-0.57,0,*48
1495642084.99,22038,16.31,73454.0,0.57,-0.33,-0.81,0,*4D
1495642086.18,22039,16.31,73448.8,0.57,-0.57,-1.01,0,*77
1495642087.38,22040,16.31,73458.8,0.57,-0.65,-1.05,0,*7C
1495642088.54,22041,16.31,73462.0,0.57,0.05,-0.29,0,*59
1495642089.74,22042,16.31,73466.0,0.57,0.17,-0.23,0,*63
1495642090.94,22043,16.31,73464.3,0.59,-0.11,-0.49,0,*4B
1495642092.13,22044,16.31,73470.0,0.61,0.17,-0.15,0,*65
1495642093.33,22045,16.31,73474.0,0.59,0.47,0.09,0,*7A
1495642094.49,22046,16.31,73468.5,0.61,0.05,-0.33,0,*50
1495642095.68,22047,16.31,73456.8,0.61,-0.45,-0.85,0,*45
1495642096.88,22048,16.31,73448.5,0.59,-0.19,-0.53,0,*43
1495642098.06,22049,16.31,73442.3,0.61,0.05,-0.23,0,*5E
1495642099.24,22050,16.31,73442.0,0.61,0.47,0.05,0,*79
1495642100.46,22051,16.31,73448.0,0.63,0.25,-0.11,0,*66
1495642101.64,22052,16.31,73448.8,0.65,0.29,-0.03,0,*5C
1495642102.84,22053,16.31,73448.8,0.63,0.41,0.01,0,*7A
1495642104.02,22054,16.31,73436.8,0.65,0.13,-0.11,0,*60
1495642105.2,22055,16.31,73426.0,0.65,0.29,-0.07,0,*5F